Location: Atlantic Beach
(40.5890°N, 73.7290°W)
Time: 07:48:56
(UTC+00:00)

N. Korean satellite - Pass Details

Date: 28 January 2021
Orbit: 451 x 502 km, 97.2° (Epoch: 04 March)

Event Time Altitude Azimuth Distance (km) Brightness Sun altitude
Rises 09:40:46 0° 25° (NNE) 2,490 10.5 -28.0°
Reaches altitude 10° 09:43:07 10° 41° (NE) 1,603 9.6 -27.6°
Maximum altitude 09:45:55 23° 95° (E) 1,015 8.9 -27.0°
Drops below altitude 10° 09:48:40 10° 150° (SSE) 1,581 9.5 -26.5°
Sets 09:50:58 0° 165° (SSE) 2,445 10.3 -26.1°
